EST,Max TemperatureF,Mean TemperatureF,Min TemperatureF,Max Dew PointF,MeanDew PointF,Min DewpointF,Max Humidity, Mean Humidity, Min Humidity, Max Sea Level PressureIn, Mean Sea Level PressureIn, Min Sea Level PressureIn, Max VisibilityMiles, Mean VisibilityMiles, Min VisibilityMiles, Max Wind SpeedMPH, Mean Wind SpeedMPH, Max Gust SpeedMPH,PrecipitationIn, CloudCover, Events, WindDirDegrees
2012-11-1,50,41,32,35,29,23,82,59,36,29.88,29.84,29.80,10,10,10,21,7,24,0.00,5,,308
2012-11-2,47,39,30,37,33,28,92,75,58,30.15,30.01,29.87,10,10,10,18,7,23,0.02,6,Rain,343
2012-11-3,44,36,27,30,28,24,85,71,57,30.25,30.20,30.17,10,10,10,10,4,13,0.00,3,,2
2012-11-4,44,36,27,31,28,23,89,73,57,30.25,30.22,30.18,10,10,10,16,4,21,0.00,6,,348
2012-11-5,45,33,21,29,25,19,92,71,49,30.24,30.20,30.14,10,9,6,8,2,10,0.00,1,,88
2012-11-6,47,35,22,35,27,18,88,71,53,30.15,30.03,29.93,10,8,5,12,5,16,T,4,Rain,155
2012-11-7,50,41,31,34,31,28,89,71,53,30.18,30.06,29.93,10,8,6,12,6,15,T,5,Rain,51
2012-11-8,45,36,26,38,31,23,92,79,65,30.25,30.20,30.16,10,6,2,12,4,14,0.00,6,,209
2012-11-9,59,45,31,43,37,28,92,72,51,30.18,30.11,30.03,10,7,2,16,7,20,T,4,Rain-Thunderstorm,159
2012-11-10,67,60,53,51,45,41,66,57,48,30.07,30.02,29.96,10,10,10,22,12,30,T,5,,186
2012-11-11,69,63,56,53,47,43,62,55,47,30.05,29.96,29.88,10,10,4,35,20,46,T,4,Rain,190
2012-11-12,56,44,32,52,31,19,96,74,52,30.33,30.09,29.92,10,9,4,22,14,28,0.23,7,Rain,254
2012-11-13,39,32,25,25,21,19,75,62,48,30.54,30.46,30.32,10,10,8,17,6,22,T,4,Snow,265
2012-11-14,41,33,24,25,22,19,78,62,46,30.59,30.52,30.44,10,10,8,15,5,17,0.00,0,,133
2012-11-15,47,35,23,29,25,21,88,67,45,30.44,30.40,30.36,10,7,3,6,1,7,0.00,0,,112
2012-11-16,54,39,24,32,25,20,88,63,38,30.52,30.48,30.41,10,7,2,6,1,7,0.00,0,,234
2012-11-17,54,40,25,34,28,22,88,67,45,30.61,30.55,30.50,10,8,3,12,3,13,0.00,0,,125
2012-11-18,57,45,33,33,30,27,82,58,33,30.51,30.45,30.39,10,9,4,12,6,15,0.00,0,,122
2012-11-19,58,47,35,36,32,28,76,58,40,30.38,30.29,30.16,10,10,9,13,6,15,T,2,,142
2012-11-20,53,46,39,45,41,35,92,74,56,30.19,30.13,30.09,10,6,0,9,2,10,0.01,7,Fog-Rain,288
2012-11-21,54,46,37,45,40,36,100,86,71,30.29,30.22,30.17,7,2,0,10,4,13,0.00,2,Fog,194
2012-11-22,61,52,42,47,42,40,89,70,51,30.15,30.01,29.82,10,7,2,23,13,32,T,2,Rain,197
2012-11-23,54,43,32,47,27,19,79,68,56,30.16,29.98,29.81,10,10,9,32,20,43,T,7,Snow,284
2012-11-24,32,28,24,23,20,17,74,69,63,30.24,30.17,30.07,10,10,10,18,10,24,T,7,,272
2012-11-25,42,35,27,27,23,19,85,69,53,30.06,29.96,29.89,10,10,9,14,8,18,0.00,2,,238
2012-11-26,38,31,23,28,23,21,88,70,52,30.34,30.20,30.06,10,10,7,15,6,17,0.00,6,,315
2012-11-27,37,32,26,22,18,12,69,57,44,30.42,30.34,30.29,10,10,10,13,4,15,0.00,5,,255
2012-11-28,42,34,25,27,20,12,69,60,51,30.39,30.34,30.27,10,10,10,16,8,22,0.00,4,,234
2012-11-29,50,40,30,31,26,21,72,57,42,30.33,30.25,30.17,10,10,9,17,9,24,0.00,2,,191
2012-11-30,52,45,37,32,30,29,70,59,48,30.19,30.14,30.09,10,10,10,10,5,12,0.00,4,,131